Other Public Products
Issued by NWS Grand Forks, ND

Home | Current Version | Previous Version | Text Only | Print | Product List | Glossary On
Versions: 1 2 3 4 5 6 7 8 9 10 11 12 13 14 15 16 17 18 19 20 21 22 23 24 25 26 27 28 29 30 31 32 33 34 35 36 37 38 39 40 41 42 43 44 45 46 47 48 49 50
000
FPUS83 KFGF 290910
OPUFGF
PRAIRIE TO PINES WEATHER ROUNDUP
NATIONAL WEATHER SERVICE EASTERN NORTH DAKOTA/GRAND FORKS ND
300 AM CST THU JAN 29 2015

 **SATELLITE DATA USED TO AUGMENT SKY COVER AT AUTOMATED STATIONS**
 *****  WEATHER ACROSS EASTERN NORTH DAKOTA  *****

CITY           SKY/WX    TMP DP  RH WIND       PRES   REMARKS
GRAND FORKS    CLOUDY    21  16  81 N17G26    30.23R WCI   7
GRAND FORKS AF CLOUDY    22  16  78 N22       30.23R WCI   6
GRAND CITY NWS   N/A     19 N/A N/A N26         N/A  WCI   1
BUXTON         NOT AVBL
DEVILS LAKE    CLOUDY    21  16  79 N17G23    30.24R WCI   7
FARGO          CLOUDY    26  20  77 NW22G31   30.19R WCI  12
WAHPETON ARPT  CLOUDY    28  23  80 N23G32    30.16R WCI  14
$$

 *****  WEATHER ACROSS CENTRAL AND WESTERN NORTH DAKOTA  *****

CITY           SKY/WX    TMP DP  RH WIND       PRES   REMARKS
JAMESTOWN      CLOUDY    27  22  81 NW20G29   30.22R WCI  13
BISMARCK       CLOUDY    31  26  82 NW20G25   30.31R WCI  19
MINOT          CLOUDY    25  18  74 NW22G31   30.32R WCI  10
MINOT AFB      CLOUDY    24  22  93 NW23G30   30.33R WCI   8
GARRISON         N/A     26  21  81 N22       30.32R WCI  12
WILLISTON      CLOUDY    28  20  71 NW15      30.40R WCI  16
DICKINSON      CLOUDY    32  23  69 NW17G25   30.31R WCI  21
HETTINGER      CLOUDY    32  24  72 NW17G25   30.34R WCI  21
$$

 *****  OTHER OBSERVATIONS NORTHEAST NORTH DAKOTA  *****

CITY           SKY/WX    TMP DP  RH WIND       PRES   REMARKS
WALHALLA         N/A     16  16 100 NW23G30   30.28R WCI  -2
LANGDON        NOT AVBL
CAVALIER       CLOUDY    18  12  79 N22G30    30.26R WCI   0
GRAFTON        NOT AVBL
CANDO          CLOUDY    23  18  80 N22       30.27R WCI   8
FORT TOTTEN      N/A     22  19  87 N10       29.95S WCI  11
ROLLA          CLOUDY    18  18 100 MISG      30.25R
RUGBY          CLOUDY    21  18  86 NW24G30   30.28R WCI   4
 ***** THE ABOVE OBSERVATIONS ARE NON NWS ARE NOT QUALITY
        CONTROLLED AND MAY MIS-REPORT RAIN FOR SNOW...
$$

 *****  OTHER OBSERVATIONS SOUTHEAST NORTH DAKOTA *****

CITY           SKY/WX    TMP DP  RH WIND       PRES   REMARKS
COOPERSTOWN    NOT AVBL
VALLEY CITY    CLOUDY    25  25 100 NW17      30.21R WCI  11
OAKES            N/A     27  27 100 NW18G25   30.21R WCI  13
GWINNER        CLOUDY    30  28  93 NW24      30.21R WCI  16
BUFFALO        NOT AVBL
WYNDMERE         N/A     27  25  93 NW18        N/A  WCI  13
 ***** THE ABOVE OBSERVATIONS ARE NON NWS ARE NOT QUALITY
       CONTROLLED AND MAY MIS-REPORT RAIN FOR SNOW...
$$

  *****  WEATHER ACROSS NORTHERN MINNESOTA  *****

CITY           SKY/WX    TMP DP  RH WIND       PRES   REMARKS
FLAG ISLAND    CLOUDY    18  16  93 NW24      30.07R WCI   0
WARROAD        CLOUDY    18  14  86 NW17G25   30.10R WCI   2
ROSEAU         CLOUDY    18  14  86 NW17      30.12R WCI   2
HALLOCK        CLOUDY    16  10  79 NW24G33   30.22R WCI  -3
THF RVR FALLS  CLOUDY    18  14  86 NW23      30.14R WCI   0
HALSTAD          N/A     22  16  76 N23G36      N/A  WCI   6
FOSSTON        CLOUDY    16  16 100 NW16G23   30.12R WCI   0
BAUDETTE       CLOUDY    20  17  88 NW22G30   30.04R WCI   3
WASKISH        CLOUDY    25  21  86 NW15      30.04R WCI  12
CROOKSTON      CLOUDY    18  18 100 N26G35    30.21R WCI  -1
$$
  *****  WEATHER ACROSS CENTRAL AND WEST MINNESOTA  *****

CITY           SKY/WX    TMP DP  RH WIND       PRES   REMARKS
BEMIDJI        CLOUDY    24  23  95 NW18G25   30.02R WCI  10
PARK RAPIDS    CLOUDY    26  22  84 NW22G28   30.01R WCI  12
WADENA         CLOUDY    25  23  93 NW16G24   30.03R WCI  12
DETROIT LAKES  CLOUDY    23  21  93 NW20G26   30.10R WCI   8
MOORHEAD       CLOUDY    27  25  93 NW23      30.18R WCI  12
FERGUS FALLS   CLOUDY    25  23  93 N29G38    30.14R WCI   8
ELBOW LAKE     CLOUDY    26  24  93 NW26G36   30.09R WCI  10
MORRIS MN      CLOUDY    28  27  93 NW33G41   30.07R WCI  12
STAPLES        CLOUDY    27  25  93 NW17G26   30.00R WCI  14
WHEATON        CLOUDY    27  23  86 NW23G35   30.16R WCI  12
$$
  *****  WEATHER ELSEWHERE ACROSS MINNESOTA  *****

CITY           SKY/WX    TMP DP  RH WIND       PRES   REMARKS
DULUTH         FLURRIES  30  25  81 N18G29    29.83R WCI  18
INTRNTL FALLS  CLOUDY    26  21  81 NW22      29.96R WCI  12
ELY            CLOUDY    27  23  86 NW12      29.85R WCI  16
CLOQUET        CLOUDY    30  27  86 NW15G25   29.86R WCI  19
BRAINERD       LGT SNOW  31  28  89 NW18G24   29.96R FOG     WCI  19
HIBBING        CLOUDY    29  24  82 NW24      29.89R WCI  15
ALEXANDRIA     CLOUDY    27  24  89 N22G32    30.03R WCI  13
SAINT CLOUD    CLOUDY    33  30  88 NW14G22   29.93R WCI  23
MINNEAPOLIS    CLOUDY    32  29  88 NW15      29.91R WCI  22
$$

  *****  WEATHER ACROSS SOUTH DAKOTA  *****

CITY           SKY/WX    TMP DP  RH WIND       PRES   REMARKS
SIOUX FALLS    CLOUDY    33  27  78 NW24G32   30.11R WCI  20
BROOKINGS      NOT AVBL
WATERTOWN      CLOUDY    29  24  82 N30G36    30.13R WCI  13
HURON          CLOUDY    33  28  81 NW17G29   30.21R WCI  22
SISSETON         N/A     28  24  85 N29G39    30.16R WCI  12
ABERDEEN       CLOUDY    32  25  75 N18G30    30.24R WCI  20
MITCHELL       CLOUDY    34  28  79 NW22G29   30.22R WCI  22
PIERRE         CLOUDY    35  27  72 NW17      30.29R WCI  25
MOBRIDGE       CLOUDY    35  27  72 NW16      30.26R
RAPID CITY     MOCLDY    33  24  69 N24G32    30.36R WCI  20
$$

  *****  SOME WEATHER IN NEARBY STATES *****

CITY           SKY/WX    TMP DP  RH WIND       PRES   REMARKS
GLASGOW MT     CLEAR     25  22  88 W5        30.42R FOG     WCI  19
GREAT FALLS MT CLEAR     29  26  89 S9        30.35F FOG     WCI  20
CHEYENNE WY    CLOUDY    35  24  64 N13       30.36R
SCOTTSBLUFF NE PTCLDY    35  25  66 NW13      30.36R
OMAHA NE       DRIZZLE   37  29  72 NW26G32   30.08R
DES MOINES IA  CLOUDY    37  30  75 N22G30    29.94R
DAVENPORT IA   PTCLDY    31  27  85 N10       29.70R WCI  22
CHICAGO IL     CLOUDY    35  27  72 S7        29.73F
EAU CLAIRE WI  CLOUDY    29  26  89 NW7       29.84S FOG     WCI  22
LA CROSSE WI   CLOUDY    32  28  85 NW10      29.83R WCI  24
$$

  *****  SOME NATIONAL WEATHER *****

CITY           SKY/WX    TMP DP  RH WIND       PRES   REMARKS
LA GUARDIA NY  CLEAR     21   6  52 CALM      30.31S
RALEIGH NC     PTCLDY    23  16  74 CALM      30.34S
ATLANTA GA     MOCLDY    38  27  64 SE3       30.29S
NEW ORLEANS LA PTCLDY    47  43  86 CALM      30.23S
OKLAHOMA CITY  MOCLDY    56  32  40 N16       30.11R
ALBUQUERQUE NM CLOUDY    45  29  53 N5        30.28S
SALT LAKE CITY PTCLDY    34  32  92 S3        30.39R
LOS ANGELES CA CLOUDY    66  47  50 N3        30.05F
BOISE ID       MOCLDY    36  34  93 SE7       30.41S
SEATTLE WA     PTCLDY    41  39  93 N6        30.36F
$$

*** WEATHER ACROSS MANITOBA...SASKATCHEWAN AND ONTARIO ***
                ***ONTARIO***

CITY           SKY/WX    TMP DP  RH WIND       PRES   REMARKS
GERALDTON      LGT SNOW  23  21  93 N8        29.72  WCI  14
THUNDER BAY    CLOUDY    28  25  86 NW12      29.78S WCI  18
SIOUX LOOKOUT  FLURRIES  10   7  85 N9G21     29.94R WCI  -2
TORONTO        CLOUDY    23  16  74 SE5       30.18F WCI  17
BIG TROUT LK   FLURRIES  -9 -15  77 N7        30.14S WCI -24
PICKLE LAKE    NOT AVBL
DRYDEN         FLURRIES  14  12  92 NW10G18   29.96R WCI   1
KENORA         CLOUDY    16  12  86 NW17      30.04R WCI   0
$$
                *** MANITOBA***

CITY           SKY/WX    TMP DP  RH WIND       PRES   REMARKS
BRANDON        CLOUDY    16  10  79 NW20G25   30.32R WCI  -1
DAUPHIN        CLOUDY     9   3  78 N13G18    30.38R WCI  -7
ISLAND LAKE    FLURRIES  -6 -11  77 N9        30.25R WCI -22
PILOT MOUND    NOT AVBL
THE PAS        CLEAR     -8 -13  77 NW13      30.46R WCI -28
THOMPSON       FLURRIES -15 -20  76 NW5       30.36R WCI -27
WINNIPEG       FLURRIES  10   5  79 N22       30.28R WCI  -9
LYNN LAKE      CLEAR    -20 -24  83 NW10      30.40R WCI -41
CHURCHILL      CLEAR    -22 -31  63 NW14      30.27R WCI -47
$$
                ***SASKATCHEWAN***

CITY           SKY/WX    TMP DP  RH WIND       PRES   REMARKS
ESTEVAN        NOT AVBL
KINDERSLEY     PTCLDY     9   5  85 N2        30.42R
LLOYDMINSTER   CLEAR      3   0  85 NE3       30.42
PRINCE ALBERT  FLURRIES   5   0  78 N3        30.49R
REGINA         NOT AVBL
YORKTON        CLOUDY     9   3  78 NW16G25   30.39R WCI  -9
N. BATTLEFORD  FLURRIES   7   5  92 NW6       30.48R WCI  -3



USA.gov is the U.S. government's official web portal to all federal, state and local government web resources and services.